Weather History for Safford, AZ

Change the Weather History Date:

Wednesday, February 5, 2014

  Actual Average Record
Temperature  
Mean Temperature 48 °F -  
Max Temperature 60 °F 62 °F 77 °F (1954)
Min Temperature 37 °F 32 °F 9 °F (1955)
Degree Days  
Heating Degree Days 16    
Moisture  
Dew Point 24 °F    
Average Humidity 45    
Maximum Humidity 67    
Minimum Humidity 22    
Precipitation  
Precipitation 0.00 in - - ()
Sea Level Pressure  
Sea Level Pressure 29.99 in    
Wind  
Wind Speed 7 mph (SSW)    
Max Wind Speed 21 mph    
Max Gust Speed 26 mph    
Visibility 10 miles    
Events      
Averages and records for this station are not official NWS values.
T = Trace of Precipitation, MM = Missing Value Source: NWS Daily Summary

Daily Weather History Graph

Daily Weather History Graph

Search for Another Location

Airport:

Trip Planner

Search our weather history database for the weather conditions in past years. The results will help you decide how hot, cold, wet, or windy it might be!

Date:

Astronomy

Feb. 05, 2014 Rise Set
Actual Time 7:10 AM MST 5:54 PM MST
Civil Twilight 6:44 AM MST 6:20 PM MST
Nautical Twilight 6:15 AM MST 6:49 PM MST
Astronomical Twilight 5:46 AM MST 7:18 PM MST
Moon 10:50 AM MST (2/5) No Moon Set
Length of Visible Light 11h 35m
Length of Day
10h 44m
Waxing Crescent, 40% of the Moon is Illuminated
Feb 5
Waxing Crescent
Feb 6
First Quarter
Feb 14
Full
Feb 22
Last Quarter
Mar 1
New

Hourly Weather History & Observations

Time (MST) Temp. Windchill Dew Point Humidity Pressure Visibility Wind Dir Wind Speed Gust Speed Precip Events Conditions
12:51 AM 39.9 °F 37.8 °F 19.9 °F 45% 30.02 in 10.0 mi Variable 3.5 mph - N/A   Clear
1:51 AM 39.0 °F 36.8 °F 19.9 °F 46% 30.02 in 10.0 mi ESE 3.5 mph - N/A   Clear
2:51 AM 39.0 °F 34.8 °F 19.9 °F 46% 30.01 in 10.0 mi SSE 5.8 mph - N/A   Partly Cloudy
3:51 AM 39.0 °F 36.8 °F 19.9 °F 46% 30.03 in 10.0 mi South 3.5 mph - N/A   Overcast
4:51 AM 37.9 °F 35.5 °F 19.0 °F 47% 30.04 in 10.0 mi ESE 3.5 mph - N/A   Overcast
5:51 AM 39.0 °F 34.0 °F 19.0 °F 45% 30.03 in 10.0 mi ESE 6.9 mph - N/A   Overcast
6:51 AM 41.0 °F 34.7 °F 21.0 °F 45% 30.02 in 10.0 mi SSE 10.4 mph - N/A   Overcast
7:51 AM 39.9 °F 33.9 °F 19.9 °F 45% 30.04 in 10.0 mi South 9.2 mph - N/A   Scattered Clouds
8:51 AM 42.1 °F 36.6 °F 21.0 °F 43% 30.04 in 10.0 mi SSE 9.2 mph - N/A   Overcast
9:51 AM 45.0 °F 41.2 °F 21.9 °F 40% 30.05 in 10.0 mi SSE 6.9 mph - N/A   Overcast
10:51 AM 50.0 °F - 23.0 °F 35% 30.03 in 10.0 mi Variable 5.8 mph - N/A   Mostly Cloudy
11:51 AM 55.0 °F - 23.0 °F 29% 29.98 in 10.0 mi ESE 10.4 mph - N/A   Mostly Cloudy
12:51 PM 55.9 °F - 21.9 °F 27% 29.94 in 10.0 mi Variable 5.8 mph - N/A   Partly Cloudy
1:51 PM 55.9 °F - 21.0 °F 26% 29.91 in 10.0 mi Calm Calm - N/A   Mostly Cloudy
2:51 PM 60.1 °F - 21.0 °F 22% 29.88 in 10.0 mi North 8.1 mph - N/A   Scattered Clouds
3:51 PM 55.9 °F - 23.0 °F 28% 29.89 in 10.0 mi NW 20.7 mph - N/A   Overcast
4:51 PM 52.0 °F - 26.1 °F 37% 29.91 in 10.0 mi NW 20.7 mph 26.5 mph N/A   Overcast
5:51 PM 50.0 °F - 30.9 °F 48% 29.93 in 10.0 mi NW 15.0 mph - N/A   Overcast
6:51 PM 48.0 °F - 30.9 °F 52% 29.94 in 10.0 mi WNW 16.1 mph - N/A   Overcast
7:51 PM 46.0 °F 39.6 °F 33.1 °F 61% 29.98 in 10.0 mi WNW 15.0 mph - N/A   Overcast
8:51 PM 46.0 °F 43.1 °F 33.1 °F 61% 29.99 in 10.0 mi NW 5.8 mph - N/A   Overcast
9:51 PM 44.1 °F 41.5 °F 32.0 °F 63% 30.00 in 10.0 mi NW 4.6 mph - N/A   Mostly Cloudy
10:51 PM 41.0 °F 35.8 °F 30.9 °F 67% 29.99 in 10.0 mi WSW 8.1 mph - N/A   Clear
11:51 PM 39.0 °F 35.7 °F 28.9 °F 67% 30.00 in 10.0 mi NW 4.6 mph - N/A   Clear